sat.trackr.live / text

‹ back to catalog

STARLINK-4134

NORAD 53254 · 2022-086N

PAYLOAD ACTIVE UNKNOWN

§ Identity

Operator
Country
US
Launch date
2022-07-24
Launch site
AFETR
Launch vehicle
Mass (kg)
RCS (m²)

Purposes: comms

External: N2YO · Heavens-Above · Gunter

§ Orbital elements

Epoch: 2026-05-24T16:25:20.514144Z

Period
95.44 min
Inclination
53.2133°
Eccentricity
0.0001220
Mean motion
15.08830748 rev/d
Perigee alt
538.9 km
Apogee alt
540.6 km
Semi-major
6,917.9 km
B*
2.9910e-5
RAAN
212.9768°
Arg perigee
72.8714°
Mean anomaly
287.2412°
Rev number
21,255

§ Raw data

STARLINK-41341 53254U 22086N   26144.68426521  .00000188  00000+0  29910-4 0  99992 53254  53.2133 212.9768 0001220  72.8714 287.2412 15.08830748212552

JSON: /api/v1/satellites/53254 · /tle

For live sub-satellite position, see the globe view (requires WebGL).

§ Visibility from observer

Set your observer location to see the next 7 days of passes ≥ 10°. The values pass through the URL so the page stays shareable.

No JS? Fill the form by hand. The geolocation button needs JavaScript.